TimeCDT,TemperatureF,Dew PointF,Humidity,Sea Level PressureIn,VisibilityMPH,Wind Direction,Wind SpeedMPH,Gust SpeedMPH,PrecipitationIn,Events,Conditions,WindDirDegrees,DateUTC
12:53 AM,59.0,51.1,75,30.04,10.0,East,9.2,-,N/A,,Clear,80,2013-04-02 05:53:00
1:53 AM,60.1,51.1,72,30.05,10.0,East,8.1,-,N/A,,Clear,80,2013-04-02 06:53:00
2:53 AM,59.0,50.0,72,30.03,10.0,East,12.7,21.9,N/A,,Clear,100,2013-04-02 07:53:00
3:53 AM,57.0,48.9,74,30.04,10.0,East,10.4,-,N/A,,Clear,80,2013-04-02 08:53:00
4:53 AM,57.0,48.0,72,30.06,10.0,ENE,10.4,-,N/A,,Partly Cloudy,70,2013-04-02 09:53:00
5:53 AM,55.9,45.0,67,30.07,10.0,ENE,11.5,-,N/A,,Scattered Clouds,70,2013-04-02 10:53:00
6:53 AM,55.0,44.1,67,30.09,10.0,East,10.4,-,N/A,,Clear,90,2013-04-02 11:53:00
7:53 AM,55.0,45.0,69,30.11,10.0,East,10.4,-,0.00,Rain,Light Rain,80,2013-04-02 12:53:00
8:53 AM,54.0,45.0,72,30.12,10.0,East,15.0,21.9,0.00,,Overcast,90,2013-04-02 13:53:00
9:53 AM,54.0,44.1,69,30.13,10.0,East,12.7,-,N/A,,Mostly Cloudy,80,2013-04-02 14:53:00
10:53 AM,52.0,37.9,59,30.13,10.0,East,17.3,27.6,N/A,,Overcast,90,2013-04-02 15:53:00
11:53 AM,53.1,37.0,55,30.12,10.0,East,17.3,23.0,N/A,,Mostly Cloudy,90,2013-04-02 16:53:00
12:53 PM,54.0,37.9,55,30.11,10.0,East,12.7,-,N/A,,Overcast,90,2013-04-02 17:53:00
1:53 PM,52.0,39.9,63,30.09,6.0,ENE,11.5,-,0.00,Rain,Light Rain,70,2013-04-02 18:53:00
2:53 PM,52.0,39.0,61,30.08,10.0,East,13.8,-,0.00,,Overcast,90,2013-04-02 19:53:00
3:53 PM,54.0,39.0,57,30.06,10.0,East,19.6,25.3,N/A,,Scattered Clouds,80,2013-04-02 20:53:00
4:53 PM,51.1,37.0,59,30.06,10.0,ENE,18.4,25.3,N/A,,Overcast,70,2013-04-02 21:53:00
5:53 PM,48.0,36.0,63,30.07,10.0,ENE,21.9,26.5,N/A,,Overcast,70,2013-04-02 22:53:00
6:53 PM,46.0,37.9,73,30.07,10.0,ENE,18.4,27.6,N/A,,Overcast,70,2013-04-02 23:53:00
7:53 PM,43.0,39.9,89,30.12,2.5,NE,11.5,-,0.03,Rain,Heavy Rain,50,2013-04-03 00:53:00
8:06 PM,43.0,39.9,89,30.12,3.0,ENE,15.0,21.9,0.04,Rain,Heavy Rain,60,2013-04-03 01:06:00
8:12 PM,43.0,41.0,93,30.15,2.5,NE,8.1,21.9,0.09,Rain,Heavy Rain,50,2013-04-03 01:12:00
8:18 PM,43.0,41.0,93,30.13,1.5,East,10.4,-,0.17,Rain,Heavy Rain,80,2013-04-03 01:18:00
8:27 PM,43.0,41.0,93,30.14,1.2,East,8.1,-,0.30,Rain,Heavy Rain,80,2013-04-03 01:27:00
8:34 PM,43.0,41.0,93,30.14,1.8,East,9.2,-,0.34,Rain,Heavy Rain,80,2013-04-03 01:34:00
8:41 PM,43.0,41.0,93,30.14,2.0,East,10.4,-,0.39,Rain,Heavy Rain,80,2013-04-03 01:41:00
8:43 PM,43.0,41.0,93,30.14,1.8,East,9.2,-,0.40,Rain,Heavy Rain,80,2013-04-03 01:43:00
8:51 PM,42.8,41.0,93,30.14,2.5,East,8.1,-,0.41,Rain,Rain,90,2013-04-03 01:51:00
8:53 PM,43.0,41.0,93,30.13,2.5,East,9.2,-,0.42,Rain,Rain,80,2013-04-03 01:53:00
9:03 PM,43.0,39.9,89,30.14,3.0,East,12.7,-,0.00,Rain,Light Rain,90,2013-04-03 02:03:00
9:11 PM,42.1,39.9,92,30.13,4.0,East,13.8,-,0.00,Rain,Light Rain,90,2013-04-03 02:11:00
9:53 PM,43.0,39.9,89,30.13,4.0,East,13.8,21.9,0.00,Rain,Light Rain,100,2013-04-03 02:53:00
10:53 PM,43.0,41.0,93,30.08,9.0,East,11.5,24.2,0.05,Rain,Light Rain,100,2013-04-03 03:53:00
11:53 PM,43.0,41.0,93,30.13,10.0,ENE,9.2,-,0.00,,Overcast,60,2013-04-03 04:53:00